Weather History for Kulusuk, Greenland

Change the Weather History Date:

Wednesday, February 13, 2013

  Actual Average Record
Temperature  
Mean Temperature 32 °F -  
Max Temperature 34 °F 21 °F 35 °F (2012)
Min Temperature 29 °F 16 °F 1 °F (1998)
Degree Days  
Heating Degree Days 34    
Moisture  
Dew Point 21 °F    
Average Humidity 63    
Maximum Humidity 80    
Minimum Humidity 34    
Precipitation  
Precipitation 0.00 in - - ()
Sea Level Pressure  
Sea Level Pressure 29.78 in    
Wind  
Wind Speed 28 mph ()    
Max Wind Speed 44 mph    
Max Gust Speed 63 mph    
Visibility 5.5 miles    
Events Snow    
Averages and records for this station are not official NWS values.
T = Trace of Precipitation, MM = Missing Value Source: Averaged Metar Reports

Daily Weather History Graph

Daily Weather History Graph

Search for Another Location

Airport:

Trip Planner

Search our weather history database for the weather conditions in past years. The results will help you decide how hot, cold, wet, or windy it might be!

Date:

Astronomy

Feb. 13, 2013 Rise Set
Actual Time 7:37 AM WGT 3:48 PM WGT
Civil Twilight 6:42 AM WGT 4:44 PM WGT
Nautical Twilight 5:43 AM WGT 5:43 PM WGT
Astronomical Twilight 4:45 AM WGT 6:42 PM WGT
Moon 7:19 AM WGT (2/13) 9:41 PM WGT (2/13)
Length of Visible Light 10h 01m
Length of Day
8h 11m
Waxing Crescent, 13% of the Moon is Illuminated
Feb 13
Waxing Crescent
Feb 17
First Quarter
Feb 25
Full
Mar 4
Last Quarter
Mar 11
New

Hourly Weather History & Observations

Time (WGT) Temp. Windchill Dew Point Humidity Pressure Visibility Wind Dir Wind Speed Gust Speed Precip Events Conditions
12:00 AM 32 °F - 26 °F 69% 29.73 in - ENE 43.7 mph - -   Scattered Clouds
12:50 AM 32.0 °F 15.2 °F 24.8 °F 75% 29.71 in - ENE 43.7 mph 62.1 mph N/A   Mostly Cloudy
1:50 AM 32.0 °F 16.0 °F 21.2 °F 64% 29.71 in - ENE 39.1 mph 63.3 mph N/A   Mostly Cloudy
2:50 AM 32.0 °F 16.3 °F 24.8 °F 75% 29.71 in - ENE 36.8 mph 50.6 mph N/A   Mostly Cloudy
3:00 AM 32 °F - 23 °F 59% 29.73 in - ENE 39.1 mph - -   Partly Cloudy
3:50 AM 32.0 °F 16.7 °F 23.0 °F 69% 29.71 in - ENE 34.5 mph - N/A   Scattered Clouds
4:50 AM 32.0 °F 16.2 °F 23.0 °F 69% 29.71 in - ENE 38.0 mph 61.0 mph N/A   Mostly Cloudy
5:50 AM 32.0 °F 16.0 °F 23.0 °F 69% 29.74 in - ENE 39.1 mph 54.1 mph N/A   Mostly Cloudy
6:00 AM 31 °F - 23 °F 61% 29.76 in - ENE 36.8 mph - -   Mostly Cloudy
6:50 AM 30.2 °F 14.3 °F 24.8 °F 80% 29.74 in 6.2 mi ENE 34.5 mph 50.6 mph N/A Snow Blowing Snow
7:50 AM 32.0 °F 17.4 °F 23.0 °F 69% 29.74 in 6.2 mi ENE 31.1 mph 43.7 mph N/A Snow Low Drifting Snow
8:50 AM 32.0 °F 17.6 °F 21.2 °F 64% 29.74 in 6.2 mi ENE 29.9 mph 43.7 mph N/A Snow Low Drifting Snow
9:00 AM 31 °F - 20 °F 51% 29.77 in - ENE 28.8 mph - -   Mostly Cloudy
9:50 AM 30.2 °F 15.9 °F 21.2 °F 69% 29.77 in 6.2 mi ENE 26.5 mph 39.1 mph N/A Snow Low Drifting Snow
10:50 AM 30.2 °F 15.9 °F 19.4 °F 64% 29.77 in 6.2 mi ENE 26.5 mph 46.0 mph N/A Snow Blowing Snow
11:50 AM 32.0 °F 19.8 °F 19.4 °F 60% 29.77 in 6.2 mi ENE 20.7 mph 32.2 mph N/A   Mostly Cloudy
12:00 PM 31 °F - 17 °F 42% 29.79 in - ENE 20.7 mph - -   Scattered Clouds
12:50 PM 32.0 °F 20.8 °F 17.6 °F 55% 29.77 in 6.2 mi ENE 17.3 mph - N/A   Mostly Cloudy
1:50 PM 32.0 °F 19.5 °F 19.4 °F 60% 29.77 in 6.2 mi East 21.9 mph - N/A Snow Light Snow
2:50 PM 30.2 °F 16.5 °F 24.8 °F 80% 29.80 in 3.7 mi East 24.2 mph - N/A Snow Snow
3:00 PM 29 °F - 24 °F 75% 29.82 in - East 21.9 mph - -   Overcast
3:50 PM 30.2 °F 17.8 °F 24.8 °F 80% 29.80 in 1.4 mi East 19.6 mph - N/A Snow Snow
5:50 PM 32.0 °F 19.2 °F 23.0 °F 69% 29.83 in - ENE 23.0 mph - N/A   Overcast
6:00 PM 32 °F - 21 °F 52% 29.84 in - ENE 24.2 mph - -   Overcast
6:50 PM 33.8 °F 21.6 °F 21.2 °F 60% 29.83 in - ENE 23.0 mph - N/A   Mostly Cloudy
7:50 PM 33.8 °F 23.5 °F 19.4 °F 56% 29.83 in - ENE 16.1 mph - N/A   Mostly Cloudy
8:50 PM 33.8 °F 23.9 °F 17.6 °F 52% 29.86 in - ENE 15.0 mph - N/A   Mostly Cloudy
9:00 PM 34 °F - 16 °F 34% 29.87 in - ENE 12.7 mph - -   Mostly Cloudy
9:50 PM 33.8 °F 27.0 °F 17.6 °F 52% 29.86 in - ENE 8.1 mph - N/A   Mostly Cloudy
10:50 PM 32.0 °F 28.7 °F 17.6 °F 55% 29.86 in - NW 3.5 mph - N/A   Mostly Cloudy
11:50 PM 32.0 °F 28.7 °F 17.6 °F 55% 29.86 in - Variable 3.5 mph - N/A   Mostly Cloudy